DW9080 Weather Reports


time (UTC)temp
C
wind
direction
speed
KPH
gust
KPH
rain 1hr
cm
rain 24hr
cm
rain mn
cm
humidity
%
barometer
mb
20260903032601 17 240 0.0 1.6 0.00 0.30 0.00 74 1011.6
20260903032502 17 226 0.0 1.6 0.00 0.30 0.00 74 1011.5
20260903032100 17 253 0.0 0.0 0.00 0.30 0.00 75 1011.5
20260903032000 17 253 0.0 0.0 0.00 0.30 0.00 75 1011.6
20260903031603 17 253 0.0 1.6 0.00 0.30 0.00 74 1011.7
20260903031102 17 250 0.0 1.6 0.00 0.30 0.00 73 1011.5
20260903030600 17 243 0.0 1.6 0.00 0.30 0.00 74 1011.4
20260903030100 17 271 0.0 1.6 0.00 0.30 0.00 75 1011.3
20260903025559 17 242 0.0 1.6 0.00 0.30 0.00 74 1011.3
20260903025042 17 243 0.0 1.6 0.00 0.30 0.00 73 1011.1
20260903024544 17 228 0.0 1.6 0.00 0.30 0.00 73 1010.8
20260903024046 17 240 0.0 1.6 0.00 0.30 0.00 74 1010.7
20260903023541 17 236 0.0 1.6 0.00 0.30 0.00 74 1010.7
20260903023043 17 260 0.0 1.6 0.00 0.30 0.00 74 1010.3
20260903022541 17 284 0.0 1.6 0.00 0.30 0.00 75 1010.2
20260903022027 17 259 0.0 1.6 0.00 0.30 0.00 75 1010.2
20260903021528 17 250 0.0 1.6 0.00 0.30 0.00 76 1010.2
20260903021028 17 243 0.0 1.6 0.00 0.30 0.00 76 1010.0
20260903020529 17 252 0.0 1.6 0.00 0.30 0.00 76 1009.9
20260903020037 17 256 0.0 1.6 0.00 0.30 0.00 77 1009.9
20260903015527 17 222 0.0 1.6 0.00 0.30 0.00 77 1009.9
20260903015027 17 251 0.0 1.6 0.00 0.30 0.00 78 1009.9
20260903014533 17 228 0.0 1.6 0.00 0.30 0.00 78 1009.9
20260903014031 17 238 0.0 1.6 0.00 0.30 0.00 78 1009.7
20260903013526 17 166 0.0 16.1 0.00 0.30 0.00 78 1009.8
20260903013026 17 240 4.8 19.3 0.00 0.30 0.00 78 1009.9
20260903012525 17 240 11.3 19.3 0.00 0.30 0.00 78 1009.7
20260903012024 17 255 9.7 17.7 0.00 0.30 0.00 80 1009.7
20260903011526 17 233 9.7 19.3 0.00 0.30 0.00 80 1009.7
20260903011026 17 250 11.3 19.3 0.00 0.30 0.00 81 1009.7
20260903010523 17 224 8.0 19.3 0.00 0.30 0.00 82 1009.7
20260903010027 17 211 3.2 19.3 0.00 0.30 0.00 82 1009.7
20260903005522 17 257 6.4 20.9 0.00 0.30 0.00 81 1009.6
20260903005022 17 235 12.9 25.7 0.00 0.30 0.00 80 1009.6
20260903004521 17 257 12.9 27.4 0.00 0.30 0.00 79 1009.7
20260903004021 17 174 17.7 27.4 0.00 0.30 0.00 79 1009.8
20260903003520 17 239 16.1 24.1 0.00 0.30 0.00 79 1009.7
20260903003019 17 257 11.3 19.3 0.00 0.30 0.00 81 1009.7
20260903002522 17 246 11.3 22.5 0.00 0.30 0.00 81 1009.8
20260903002118 17 240 9.7 29.0 0.00 0.30 0.00 80 1009.9
20260903001603 17 225 16.1 29.0 0.00 0.30 0.00 79 1009.9
20260903001057 17 231 17.7 30.6 0.00 0.30 0.00 78 1009.6
20260903000600 18 243 9.7 19.3 0.00 0.30 0.00 78 1009.4
20260903000055 18 221 11.3 19.3 0.00 0.30 0.00 78 1009.2
20260902235554 18 233 12.9 22.5 0.00 0.30 0.00 77 1009.3
20260902235053 19 221 16.1 22.5 0.00 0.30 0.00 75 1009.5
20260902234635 19 216 11.3 19.3 0.00 0.30 0.00 73 1009.4
20260902234034 20 219 8.0 20.9 0.00 0.30 0.00 72 1009.4
20260902233539 20 194 11.3 24.1 0.00 0.30 0.00 70 1009.3
20260902233037 21 240 12.9 24.1 0.00 0.30 0.00 67 1009.3
20260902232536 21 250 12.9 19.3 0.00 0.30 0.00 64 1009.2
20260902232036 22 236 0.0 9.7 0.00 0.30 0.00 65 1009.1
20260902231538 22 259 0.0 9.7 0.00 0.30 0.00 67 1009.0
20260902231027 22 246 0.0 1.6 0.00 0.30 0.00 66 1008.9
20260902230526 22 243 0.0 1.6 0.00 0.30 0.00 64 1008.9
20260902230022 22 255 0.0 1.6 0.00 0.30 0.00 64 1008.9
20260902225526 22 210 0.0 1.6 0.00 0.30 0.00 64 1008.8
20260902225024 22 56 0.0 0.0 0.00 0.30 0.00 65 1008.9
20260902224522 22 57 0.0 3.2 0.00 0.30 0.00 64 1008.8
20260902224024 23 124 0.0 3.2 0.00 0.30 0.00 63 1008.8
20260902223521 23 256 0.0 0.0 0.00 0.30 0.00 65 1008.8
20260902223034 22 256 0.0 0.0 0.00 0.30 0.00 65 1008.9
20260902222524 22 256 0.0 0.0 0.00 0.30 0.00 67 1008.9
20260902222024 23 256 0.0 0.0 0.00 0.30 0.00 65 1009.0
20260902221524 23 277 0.0 0.0 0.00 0.30 0.00 63 1009.1
20260902221120 23 79 0.0 0.0 0.00 0.30 0.00 60 1009.1
20260902220518 23 77 0.0 0.0 0.00 0.30 0.00 59 1009.2
20260902220018 23 170 0.0 1.6 0.00 0.30 0.00 60 1009.2
20260902215517 23 167 0.0 1.6 0.00 0.30 0.00 60 1009.2
20260902215019 23 169 0.0 0.0 0.00 0.30 0.00 61 1009.3
20260902214521 23 174 0.0 0.0 0.00 0.30 0.00 59 1009.4
20260902214017 23 173 0.0 1.6 0.00 0.30 0.00 59 1009.4
20260902213516 23 263 0.0 1.6 0.00 0.30 0.00 66 1009.1
20260902213016 23 229 0.0 0.0 0.00 0.30 0.00 66 1009.3
20260902212515 23 237 0.0 0.0 0.00 0.30 0.00 63 1009.4
20260902212015 23 134 0.0 0.0 0.00 0.30 0.00 58 1009.6
20260902211556 23 80 0.0 0.0 0.00 0.30 0.00 57 1009.6
20260902211059 23 63 0.0 0.0 0.00 0.30 0.00 58 1009.6
20260902210557 23 64 0.0 0.0 0.00 0.30 0.00 57 1009.6
20260902210056 23 70 0.0 0.0 0.00 0.30 0.00 55 1009.6
20260902205555 24 108 0.0 1.6 0.00 0.30 0.00 57 1009.7
20260902205054 24 131 0.0 1.6 0.00 0.30 0.00 58 1009.7
20260902204539 23 169 0.0 1.6 0.00 0.43 0.00 57 1009.8
20260902204036 24 190 0.0 1.6 0.00 0.43 0.00 58 1009.8
20260902203534 24 217 0.0 1.6 0.00 0.43 0.00 56 1009.9
20260902203034 24 136 0.0 1.6 0.00 0.43 0.00 59 1010.0
20260902202533 25 233 0.0 1.6 0.00 0.43 0.00 57 1010.0
20260902202033 25 61 0.0 1.6 0.00 0.43 0.00 56 1010.2
20260902201515 25 207 0.0 3.2 0.00 0.43 0.00 56 1010.2
20260902201013 25 276 0.0 3.2 0.00 0.43 0.00 57 1010.4
20260902200516 25 127 0.0 1.6 0.00 0.43 0.00 60 1010.4
20260902200011 24 133 0.0 1.6 0.00 0.43 0.00 60 1010.5
20260902195510 23 62 0.0 1.6 0.00 0.43 0.00 60 1010.6
20260902195009 24 242 0.0 6.4 0.00 0.43 0.00 60 1010.8
20260902194556 23 278 1.6 6.4 0.00 0.43 0.00 62 1010.8
20260902194050 23 262 0.0 1.6 0.00 0.43 0.00 62 1011.0
20260902193554 23 297 0.0 1.6 0.00 0.43 0.00 58 1011.0
20260902193050 24 240 0.0 1.6 0.00 0.43 0.00 58 1011.1
20260902192549 23 156 0.0 1.6 0.00 0.43 0.00 59 1011.3
20260902192046 23 229 0.0 1.6 0.00 0.43 0.00 61 1011.4
20260902191529 23 226 0.0 1.6 0.00 0.43 0.00 62 1011.5
20260902191028 23 252 0.0 0.0 0.00 0.43 0.00 58 1011.6
20260902190530 23 146 0.0 6.4 0.00 0.43 0.00 58 1011.7
20260902190026 23 139 0.0 6.4 0.00 0.43 0.00 58 1011.9
20260902185528 23 56 0.0 4.8 0.00 0.43 0.00 58 1011.9
20260902185026 23 250 0.0 4.8 0.00 0.43 0.00 58 1011.9
20260902184507 23 139 0.0 4.8 0.00 0.43 0.00 59 1012.0
20260902184006 23 60 0.0 4.8 0.00 0.43 0.00 59 1012.0
20260902183506 23 57 0.0 0.0 0.00 0.43 0.00 59 1012.1
20260902183005 23 266 0.0 1.6 0.00 0.43 0.00 60 1012.2
20260902182505 23 70 0.0 1.6 0.00 0.43 0.00 59 1012.3
20260902182004 23 173 0.0 3.2 0.00 0.43 0.00 61 1012.3
20260902181545 23 113 0.0 3.2 0.00 0.43 0.00 63 1012.4
20260902181044 23 51 0.0 0.0 0.00 0.43 0.00 64 1012.4
20260902180542 22 156 0.0 0.0 0.00 0.43 0.00 64 1012.5
20260902180041 22 34 0.0 0.0 0.00 0.43 0.00 65 1012.6
20260902175540 22 71 0.0 1.6 0.00 0.43 0.00 64 1012.7
20260902175039 22 63 0.0 3.2 0.00 0.43 0.00 64 1012.8
20260902174521 22 24 0.0 1.6 0.00 0.43 0.00 65 1012.8
20260902174020 21 57 0.0 1.6 0.00 0.43 0.00 64 1013.0
20260902173521 22 70 0.0 0.0 0.00 0.43 0.00 67 1013.0
20260902173025 22 48 0.0 0.0 0.00 0.43 0.00 66 1013.1
20260902172516 21 158 0.0 0.0 0.00 0.43 0.00 69 1013.1
20260902172015 21 56 0.0 1.6 0.00 0.43 0.00 67 1013.1
20260902171614 21 58 0.0 1.6 0.00 0.43 0.00 68 1013.2
20260902171059 21 63 0.0 1.6 0.00 0.43 0.00 70 1013.4
20260902170555 21 65 0.0 3.2 0.00 0.43 0.00 67 1013.5
20260902170054 21 156 0.0 6.4 0.00 0.43 0.00 71 1013.5
20260902165553 21 64 0.0 6.4 0.00 0.43 0.00 72 1013.5
20260902165053 20 66 0.0 1.6 0.00 0.43 0.00 71 1013.5
20260902164554 20 75 0.0 1.6 0.00 0.43 0.00 71 1013.5
20260902164032 20 250 0.0 1.6 0.00 0.43 0.00 72 1013.6
20260902163532 20 89 0.0 0.0 0.00 0.43 0.00 74 1013.6
20260902163031 20 349 0.0 0.0 0.00 0.43 0.00 76 1013.5
20260902162529 20 70 0.0 0.0 0.00 0.43 0.00 77 1013.6
20260902162028 19 70 0.0 0.0 0.00 0.43 0.00 78 1013.6
20260902161536 19 69 0.0 1.6 0.00 0.43 0.00 78 1013.6
20260902161009 19 70 0.0 0.0 0.00 0.43 0.00 78 1013.7
20260902160508 18 32 0.0 1.6 0.00 0.43 0.00 82 1013.7
20260902160009 18 77 0.0 1.6 0.00 0.43 0.00 82 1013.7
20260902155507 18 44 0.0 0.0 0.00 0.43 0.00 83 1013.7
20260902155004 18 70 0.0 0.0 0.00 0.43 0.43 83 1013.9
20260902154508 18 64 0.0 0.0 0.00 0.43 0.43 83 1014.0
20260902154047 18 61 0.0 0.0 0.00 0.43 0.43 84 1014.0
20260902153551 18 61 0.0 0.0 0.00 0.43 0.43 84 1014.0
20260902153049 17 163 0.0 1.6 0.00 0.43 0.43 89 1014.0
20260902152546 17 30 0.0 1.6 0.00 0.43 0.43 87 1014.1
20260902152046 17 61 0.0 1.6 0.00 0.43 0.43 88 1014.1
20260902151551 17 47 0.0 1.6 0.00 0.43 0.43 89 1014.0
20260902151029 17 77 0.0 1.6 0.00 0.43 0.43 92 1014.1
20260902150527 17 47 0.0 0.0 0.00 0.43 0.43 95 1014.1
20260902150031 17 70 0.0 0.0 0.00 0.43 0.43 98 1014.2
20260902145528 16 110 0.0 0.0 0.00 0.43 0.43 100 1014.2
20260902145028 16 63 0.0 0.0 0.00 0.43 0.43 100 1014.3
20260902144527 16 65 0.0 0.0 0.00 0.43 0.43 100 1014.3
20260902144008 16 55 0.0 0.0 0.00 0.43 0.43 100 1014.3
20260902143507 16 73 0.0 0.0 0.00 0.43 0.43 100 1014.3
20260902143010 15 73 0.0 1.6 0.00 0.43 0.43 100 1014.4
20260902142510 15 74 0.0 1.6 0.00 0.43 0.43 100 1014.5
20260902142008 15 67 0.0 1.6 0.00 0.43 0.43 100 1014.5
20260902141507 15 117 0.0 1.6 0.00 0.43 0.43 100 1014.4
20260902141059 15 53 0.0 1.6 0.00 0.43 0.43 100 1014.4
20260902140555 15 61 0.0 0.0 0.00 0.43 0.43 100 1014.4
20260902140056 15 71 0.0 0.0 0.00 0.43 0.43 100 1014.3
20260902135555 14 69 0.0 0.0 0.00 0.43 0.43 100 1014.2
20260902135055 14 68 0.0 0.0 0.00 0.43 0.43 100 1014.2
20260902134559 14 67 0.0 0.0 0.00 0.43 0.43 100 1014.3
20260902134054 14 65 0.0 1.6 0.00 0.43 0.43 100 1014.3
20260902133554 13 58 0.0 1.6 0.00 0.43 0.43 100 1014.3
20260902133102 14 81 0.0 0.0 0.00 0.43 0.43 100 1014.2
20260902132553 14 256 0.0 0.0 0.00 0.43 0.43 100 1014.1
20260902132053 13 255 0.0 0.0 0.00 0.43 0.43 100 1014.1
20260902131602 13 256 0.0 0.0 0.00 0.43 0.43 100 1014.0
20260902131055 13 255 0.0 0.0 0.00 0.43 0.43 100 1013.9
20260902130553 13 255 0.0 0.0 0.00 0.43 0.43 100 1013.9
20260902130050 -17 0.0 0.0 0.00 0.43 0.43 1013.9
20260902125552 -17 0.0 0.0 0.00 0.43 0.43 1014.0
20260902125051 -17 0.0 0.0 0.00 0.43 0.43 1013.9
20260902124547 -17 0.0 0.0 0.00 0.43 0.43 1013.9
20260902124045 -17 0.0 0.0 0.00 0.43 0.43 1013.9
20260902123543 -17 0.0 0.0 0.00 0.43 0.43 1013.9
20260902123043 -17 0.0 0.0 0.00 0.43 0.43 1013.8
20260902122541 -17 0.0 0.0 0.00 0.43 0.43 1013.9
20260902122039 -17 0.0 0.0 0.00 0.43 0.43 1013.9
20260902121543 -17 0.0 0.0 0.00 0.43 0.43 1013.9
20260902121019 -17 0.0 0.0 0.00 0.43 0.43 1013.9
20260902120518 -17 0.0 0.0 0.00 0.43 0.43 1014.0
20260902120017 -17 0.0 0.0 0.00 0.43 0.43 1014.0
20260902115520 -17 0.0 0.0 0.00 0.43 0.43 1014.1
20260902115014 -17 0.0 0.0 0.00 0.43 0.43 1013.9
20260902114515 -17 0.0 0.0 0.00 0.43 0.43 1013.9
20260902114053 -17 0.0 0.0 0.00 0.43 0.43 1014.0
20260902113552 -17 0.0 0.0 0.00 0.43 0.43 1014.1
20260902113052 -17 0.0 0.0 0.00 0.43 0.43 1014.0
20260902112549 -17 0.0 0.0 0.00 0.43 0.43 1014.1
20260902112048 -17 0.0 0.0 0.00 0.43 0.43 1014.0
20260902111547 -17 0.0 0.0 0.00 0.43 0.43 1014.0
20260902111028 -17 0.0 0.0 0.00 0.43 0.43 1014.0
20260902110527 -17 0.0 0.0 0.00 0.43 0.43 1014.0
20260902110032 -17 0.0 0.0 0.00 0.43 0.43 1014.0
20260902105523 -17 0.0 0.0 0.00 0.43 0.43 1013.9
20260902105022 -17 0.0 0.0 0.00 0.43 0.43 1013.9
20260902104541 -17 0.0 0.0 0.00 0.43 0.43 1013.7
20260902104002 -17 0.0 0.0 0.00 0.43 0.43 1013.7
20260902103503 -17 0.0 0.0 0.00 0.43 0.43 1013.6
20260902103002 -17 0.0 0.0 0.00 0.43 0.43 1013.6
20260902102502 -17 0.0 0.0 0.00 0.43 0.43 1013.6
20260902102001 -17 0.0 0.0 0.00 0.43 0.43 1013.6
20260902101605 -17 0.0 0.0 0.00 0.43 0.43 1013.6
20260902101058 -17 0.0 0.0 0.00 0.43 0.43 1013.6
20260902100540 -17 0.0 0.0 0.00 0.43 0.43 1013.5
20260902100052 -17 0.0 0.0 0.00 0.43 0.43 1013.6
20260902095537 -17 0.0 0.0 0.00 0.43 0.43 1013.6
20260902095035 -17 0.0 0.0 0.00 0.43 0.43 1013.6
20260902094534 -17 0.0 0.0 0.00 0.43 0.43 1013.5
20260902094033 -17 0.0 0.0 0.00 0.43 0.43 1013.5
20260902093513 -17 0.0 0.0 0.00 0.43 0.43 1013.5
20260902093012 -17 0.0 0.0 0.00 0.43 0.43 1013.4
20260902092512 14 243 0.0 0.0 0.00 0.43 0.43 99 1013.5
20260902092013 14 243 0.0 0.0 0.00 0.43 0.43 99 1013.5
20260902091515 14 243 0.0 0.0 0.00 0.43 0.43 100 1013.6
20260902091011 14 243 0.0 0.0 0.00 0.43 0.43 99 1013.6
20260902090553 14 243 0.0 0.0 0.00 0.43 0.43 99 1013.6
20260902090057 14 243 0.0 0.0 0.00 0.43 0.43 99 1013.7
20260902085555 14 243 0.0 0.0 0.00 0.43 0.43 99 1013.6
20260902085053 14 243 0.0 0.0 0.00 0.43 0.43 99 1013.5
20260902084556 14 243 0.0 0.0 0.00 0.43 0.43 99 1013.6
20260902084051 14 243 0.0 0.0 0.00 0.43 0.43 99 1013.7
20260902083532 14 243 0.0 0.0 0.00 0.43 0.43 99 1013.8
20260902083032 14 243 0.0 0.0 0.00 0.43 0.43 99 1013.9
20260902082532 14 243 0.0 0.0 0.00 0.43 0.43 99 1013.9
20260902082033 14 243 0.0 0.0 0.00 0.43 0.43 99 1013.9
20260902081537 14 243 0.0 0.0 0.00 0.43 0.43 99 1014.0
20260902081032 15 244 0.0 0.0 0.00 0.43 0.43 99 1014.0
20260902080514 15 243 0.0 0.0 0.00 0.43 0.43 99 1013.9
20260902080114 15 243 0.0 0.0 0.00 0.43 0.43 99 1013.9
20260902075513 15 243 0.0 0.0 0.00 0.43 0.43 99 1013.9
20260902075013 15 243 0.0 0.0 0.00 0.43 0.43 99 1013.9
20260902074513 15 244 0.0 0.0 0.03 0.43 0.43 99 1014.0
20260902074014 15 243 0.0 0.0 0.03 0.43 0.43 99 1014.1
20260902073555 15 244 0.0 0.0 0.03 0.43 0.43 99 1014.2
20260902073055 15 243 0.0 0.0 0.03 0.43 0.43 99 1014.1
20260902072555 15 243 0.0 0.0 0.03 0.43 0.43 99 1014.1
20260902072058 15 243 0.0 0.0 0.03 0.43 0.43 99 1014.1
20260902071602 15 243 0.0 0.0 0.05 0.43 0.43 99 1014.1
20260902071057 15 243 0.0 0.0 0.05 0.43 0.43 99 1014.2
20260902070545 15 243 0.0 0.0 0.05 0.43 0.43 99 1014.2
20260902070043 15 244 0.0 0.0 0.05 0.43 0.43 99 1014.3
20260902065543 15 243 0.0 0.0 0.05 0.43 0.43 98 1014.3
20260902065045 15 243 0.0 0.0 0.08 0.48 0.43 98 1014.4
20260902064543 15 243 0.0 0.0 0.05 0.46 0.41 98 1014.6
20260902064042 14 244 0.0 0.0 0.05 0.46 0.41 98 1014.6
20260902063541 15 244 0.0 1.6 0.05 0.46 0.41 98 1014.6
20260902063101 15 228 0.0 0.0 0.05 0.46 0.41 98 1014.7
20260902062542 15 243 0.0 0.0 0.05 0.46 0.41 97 1014.8
20260902062041 15 224 0.0 0.0 0.05 0.46 0.41 97 1014.9
20260902061550 15 224 0.0 0.0 0.05 0.43 0.38 97 1014.9
20260902061041 15 223 0.0 0.0 0.05 0.43 0.38 97 1014.9
20260902060540 15 223 0.0 0.0 0.05 0.43 0.38 96 1015.0
20260902060054 15 224 0.0 0.0 0.05 0.43 0.36 96 1015.1
20260902055540 15 223 0.0 0.0 0.05 0.43 0.36 96 1015.1
20260902055039 15 224 0.0 0.0 0.05 0.56 0.33 96 1015.0
20260902054543 15 223 0.0 1.6 0.05 0.56 0.33 96 1015.1
20260902054042 15 223 0.0 1.6 0.05 0.56 0.33 95 1015.2
20260902053539 15 231 0.0 1.6 0.05 0.56 0.33 95 1015.2
20260902053041 15 223 0.0 0.0 0.05 0.56 0.33 95 1015.2
20260902052537 15 167 0.0 0.0 0.10 0.56 0.33 96 1015.3
20260902052038 15 167 0.0 1.6 0.15 0.56 0.33 96 1015.3
20260902051537 15 167 0.0 1.6 0.20 0.56 0.33 95 1015.3
20260902051036 15 212 0.0 1.6 0.20 0.53 0.33 95 1015.3
20260902050519 15 193 0.0 1.6 0.18 0.51 0.30 95 1015.2
20260902050022 15 226 0.0 1.6 0.18 0.51 0.30 95 1015.2
20260902045517 15 132 0.0 0.0 0.18 0.51 0.30 95 1015.3
20260902045017 15 132 0.0 1.6 0.18 0.71 0.30 95 1015.3
20260902044534 15 132 0.0 1.6 0.18 0.71 0.30 94 1015.1
20260902044017 16 156 0.0 0.0 0.18 0.71 0.30 94 1015.1
20260902043559 16 156 0.0 0.0 0.18 0.71 0.30 94 1015.0
20260902043108 16 187 0.0 0.0 0.18 0.71 0.30 94 1014.9
20260902042600 16 148 0.0 1.6 0.13 0.64 0.23 94 1014.9
20260902042057 16 134 0.0 1.6 0.08 0.61 0.20 94 1014.7
20260902041556 16 63 0.0 0.0 0.03 0.53 0.15 93 1014.5
20260902041058 16 64 0.0 0.0 0.00 0.51 0.13 93 1014.5
20260902040538 16 63 0.0 1.6 0.00 0.51 0.13 93 1014.6
20260902040038 16 57 0.0 1.6 0.00 0.51 0.13 93 1014.5
20260902035536 16 253 0.0 0.0 0.00 0.51 0.13 93 1014.3
20260902035037 16 253 0.0 0.0 0.00 0.61 0.13 93 1014.3
20260902034535 16 253 0.0 0.0 0.00 0.61 0.13 93 1013.9
20260902034034 16 254 0.0 0.0 0.00 0.61 0.13 93 1013.9
20260902033516 16 253 0.0 0.0 0.00 0.61 0.13 94 1013.7
20260902033015 16 252 0.0 0.0 0.00 0.61 0.13 94 1013.6